Weather History for Piney Island, NC

Change the Weather History Date:

Sunday, January 27, 2013

  Actual Average (KMRH) Record (KMRH)
Temperature  
Mean Temperature 38 °F -  
Max Temperature 42 °F 55 °F 73 °F (1950)
Min Temperature 34 °F 34 °F 18 °F (1985)
Degree Days  
Heating Degree Days 27    
Moisture  
Dew Point 27 °F    
Average Humidity 65    
Maximum Humidity 85    
Minimum Humidity 53    
Precipitation  
Precipitation 0.00 in - - ()
Sea Level Pressure  
Sea Level Pressure 30.53 in    
Wind  
Wind Speed 10 mph (NNE)    
Max Wind Speed 15 mph    
Max Gust Speed 22 mph    
Averages and records for this station are not official NWS values.
T = Trace of Precipitation, MM = Missing Value Source: NWS Daily Summary

Daily Weather History Graph

Daily Weather History Graph

Search for Another Location

Airport:

Trip Planner

Search our weather history database for the weather conditions in past years. The results will help you decide how hot, cold, wet, or windy it might be!

Date:

Astronomy

Jan. 27, 2013 Rise Set
Actual Time 7:07 AM EST 5:29 PM EST
Civil Twilight 6:41 AM EST 5:56 PM EST
Nautical Twilight 6:10 AM EST 6:27 PM EST
Astronomical Twilight 5:40 AM EST 6:57 PM EST
Moon 6:17 PM EST (1/27) 7:02 AM EST (1/27)
Length of Visible Light 11h 15m
Length of Day
10h 21m
Full, 100% of the Moon is Illuminated
Jan 27
Full
Feb 3
Last Quarter
Feb 10
New
Feb 17
First Quarter
Feb 25
Full

Hourly Weather History & Observations

Time (EST) Temp. Windchill Dew Point Humidity Pressure Visibility Wind Dir Wind Speed Gust Speed Precip Events Conditions
12:56 AM 35.1 °F 27.4 °F 30.0 °F 82% 30.41 in - NNE 10.4 mph - N/A   Clear
1:56 AM 35.1 °F 27.9 °F 28.0 °F 76% 30.43 in - NNE 9.2 mph - N/A   Clear
2:56 AM 34.0 °F 27.2 °F 28.9 °F 82% 30.45 in - North 8.1 mph - N/A   Clear
3:56 AM 34.0 °F 26.6 °F 28.9 °F 82% 30.46 in - North 9.2 mph - N/A   Clear
4:56 AM 34.0 °F 27.2 °F 30.0 °F 85% 30.46 in - North 8.1 mph - N/A   Clear
5:56 AM 36.0 °F 26.7 °F 27.0 °F 70% 30.48 in - NNE 15.0 mph 20.7 mph 0.00 in Snow Light Snow
6:56 AM 36.0 °F 26.7 °F 25.0 °F 64% 30.49 in - NE 15.0 mph - 0.00 in Snow Light Snow
7:56 AM 37.0 °F - 25.0 °F 62% 30.52 in - North - - 0.00 in Snow Light Snow
8:56 AM 37.9 °F 29.6 °F 25.0 °F 60% 30.56 in - NNE 13.8 mph 20.7 mph 0.00 in Snow Light Snow
9:56 AM 39.0 °F 31.0 °F 26.1 °F 60% 30.59 in - NNE 13.8 mph - 0.00 in   Clear
10:56 AM 39.9 °F 32.1 °F 25.0 °F 55% 30.59 in - NNE 13.8 mph 21.9 mph N/A   Clear
11:56 AM 41.0 °F 33.9 °F 26.1 °F 55% 30.57 in - NNE 12.7 mph - N/A   Clear
12:56 PM 41.0 °F 34.3 °F 26.1 °F 55% 30.55 in - NNE 11.5 mph - N/A   Clear
1:56 PM 42.1 °F 37.1 °F 27.0 °F 55% 30.55 in - NE 8.1 mph - N/A   Partly Cloudy
2:56 PM 41.0 °F 35.2 °F 25.0 °F 53% 30.53 in - NE 9.2 mph - N/A   Clear
3:56 PM 42.1 °F 37.7 °F 26.1 °F 53% 30.55 in - NE 6.9 mph - N/A   Clear
4:56 PM 41.0 °F 36.4 °F 26.1 °F 55% 30.57 in - NNE 6.9 mph - N/A   Clear
5:56 PM 37.9 °F 33.5 °F 27.0 °F 65% 30.58 in - NE 5.8 mph - N/A   Clear
6:56 PM 39.0 °F 34.0 °F 27.0 °F 62% 30.57 in - ENE 6.9 mph - N/A   Clear
7:56 PM 39.0 °F 34.0 °F 27.0 °F 62% 30.57 in - NE 6.9 mph - N/A   Clear
8:56 PM 39.0 °F 33.4 °F 28.0 °F 65% 30.56 in - NE 8.1 mph - N/A   Clear
9:56 PM 39.0 °F 33.4 °F 28.0 °F 65% 30.55 in - ENE 8.1 mph - N/A   Clear
10:56 PM 37.9 °F 32.7 °F 28.0 °F 68% 30.55 in - NE 6.9 mph - N/A   Clear
11:56 PM 39.0 °F 34.0 °F 30.0 °F 70% 30.53 in - ENE 6.9 mph - N/A   Clear